Flag for Germany Weather past 2 weeks in Gross-Gerau, Hesse, Germany

Now
63 °F

Light fog.


Feels Like: 63 °F
Forecast: 62 / 78 °F
Wind: 3 mph from East

Location: Frankfurt-M-Flughafen Airport

Current Time: Sep 19, 2014 at 2:01:16 AM

Latest Report: Sep 19, 2014 at 1:20 AM


Visibility: N/A

Pressure: 29.89 "Hg

Humidity: 100%

Dew point: 63 °F

Location of Gross-GerauLocation

Historic Weather in Gross-Gerau — Graph

°F

Gross-Gerau temperature yesterday

Maximum temperature yesterday: 75 °F (at 3:20 PM)
Minimum temperature yesterday: 59 °F (at 2:20 AM)
Average temperature yesterday: 66 °F

Past Weeks' High & Low Weather Summary

 TemperatureHumidityPressure
High79 °F (Sep 6, 3:20 PM)100% (Sep 5, 3:20 AM)30.18 "Hg (Sep 5, 3:20 AM)
Low46 °F (Sep 11, 2:20 AM)46% (Sep 9, 5:50 PM)29.86 "Hg (Sep 6, 4:20 PM)
Average64 °F81%30.01 "Hg
* Reported Sep 4 12:20 AM — Sep 19 12:50 AM, Gross-Gerau, Weather by CustomWeather, © 2014

Note: Actual official high and low records may vary slightly from our data, if they occured in-between our weather recording intervals... More about our weather records

Advertising

Gross-Gerau weather history for previous 24 hours

 ConditionsComfort  
Time TempWeatherWind HumidityBarometerVisibility
12:50 AM
Sep 19
64 °FLight fog.1 mph94%29.89 "HgN/A
12:20 AM66 °FClear.1 mph88%29.89 "Hg10 mi
11:50 PM
Sep 18
66 °FClear.No wind88%29.89 "Hg10 mi
11:20 PM66 °FClear.1 mph88%29.89 "Hg10 mi
10:50 PM68 °FClear.2 mph83%29.89 "Hg10 mi
10:20 PM66 °FClear.1 mph88%29.89 "Hg10 mi
9:20 PM68 °FClear.6 mph83%29.89 "Hg10 mi
8:50 PM68 °FPartly cloudy.6 mph88%29.89 "HgN/A
8:20 PM68 °FBroken clouds.7 mph88%29.89 "HgN/A
7:50 PM70 °FPartly sunny.6 mph83%29.89 "HgN/A
7:20 PM72 °FScattered showers. Broken clouds.7 mph78%29.89 "HgN/A
6:50 PM72 °FBroken clouds.6 mph78%29.86 "HgN/A
6:20 PM73 °FSunny.6 mph74%29.86 "Hg10 mi
5:50 PM73 °FSunny.7 mph74%29.86 "Hg10 mi
5:20 PM73 °FSunny.7 mph69%29.86 "Hg10 mi
4:50 PM75 °FSunny.6 mph69%29.86 "Hg10 mi
4:20 PM75 °FBroken clouds.7 mph65%29.86 "HgN/A
3:50 PM75 °FBroken clouds.5 mph69%29.86 "HgN/A
3:20 PM75 °FBroken clouds.No wind69%29.89 "HgN/A
2:50 PM72 °FBroken clouds.1 mph73%29.89 "HgN/A
2:20 PM72 °FBroken clouds.3 mph73%29.89 "HgN/A
1:50 PM72 °FPartly sunny.2 mph73%29.89 "HgN/A
1:20 PM70 °FPartly sunny.2 mph78%29.89 "HgN/A
12:50 PM70 °FBroken clouds.2 mph78%29.89 "HgN/A
12:20 PM68 °FSunny.2 mph78%29.89 "Hg10 mi
11:50 AM66 °FSunny.5 mph88%29.89 "Hg10 mi
11:20 AM66 °FSunny.6 mph88%29.89 "Hg10 mi
10:50 AM64 °FSunny.7 mph88%29.89 "Hg10 mi
10:20 AM64 °FSunny.6 mph88%29.89 "Hg10 mi
9:50 AM63 °FSunny.7 mph94%29.89 "Hg10 mi
9:20 AM61 °FSunny.7 mph100%29.89 "Hg10 mi
8:50 AM61 °FSunny.8 mph94%29.89 "Hg10 mi
8:20 AM61 °FBroken clouds.9 mph100%29.89 "HgN/A
7:50 AM61 °FPartly cloudy.6 mph100%29.86 "HgN/A
7:20 AM61 °FLight rain. Partly cloudy.12 mph100%29.86 "HgN/A
6:50 AM61 °FLight rain. Passing clouds.8 mph94%29.89 "HgN/A
6:20 AM61 °FLight rain. Passing clouds.2 mph100%29.89 "HgN/A
5:50 AM61 °FLight rain. Passing clouds.8 mph94%29.89 "HgN/A
5:20 AM61 °FLight rain. Passing clouds.6 mph94%29.86 "HgN/A
4:50 AM61 °FLight rain. Partly cloudy.6 mph94%29.86 "HgN/A
4:20 AM61 °FPartly cloudy.6 mph94%29.86 "HgN/A
3:50 AM61 °FClear.8 mph94%29.86 "Hg10 mi
3:20 AM59 °FClear.7 mph100%29.86 "Hg10 mi
2:50 AM59 °FClear.6 mph100%29.86 "Hg10 mi
2:20 AM59 °FClear.6 mph94%29.89 "Hg10 mi
Weather by CustomWeather, © 2014

See weather overviewHow to use our weather pages